• In Uzbekistan
  • List of Countries
  • For 7 days
  • Water Temperature
  • Satellite Maps
  • Weather Map
  • Weather Widgets
  • user-avatar
    Login

    Hourly Weather Klagenfurt

    Today, 24 June, Sunday

    Time Temperature Precipitation Wind Pressure Humidity
    00:00 +9°C° 0.1 mm 1 mps 693 mmHg 87%
    01:00 +8°C° 0.1 mm 0 mps 693 mmHg 88%
    02:00 +8°C° 0.1 mm 0 mps 692 mmHg 88%
    03:00 +8°C° 0.1 mm 0 mps 692 mmHg 89%
    04:00 +8°C° 0.1 mm 0 mps 692 mmHg 89%
    05:00 +9°C° 0 mm 0 mps 693 mmHg 84%
    06:00 +11°C° 0 mm 0 mps 693 mmHg 79%
    07:00 +12°C° 0 mm 0 mps 693 mmHg 74%
    08:00 +14°C° 0 mm 0 mps 693 mmHg 67%
    09:00 +16°C° 0 mm 0 mps 693 mmHg 60%
    10:00 +18°C° 0 mm 0 mps 694 mmHg 52%
    11:00 +21°C° 0.2 mm 1 mps 693 mmHg 52%
    12:00 +21°C° 0.2 mm 1 mps 693 mmHg 52%
    13:00 +22°C° 0.2 mm 1 mps 693 mmHg 51%
    14:00 +21°C° 0.4 mm 1 mps 693 mmHg 54%
    15:00 +21°C° 0.4 mm 1 mps 692 mmHg 57%
    16:00 +20°C° 0.4 mm 1 mps 692 mmHg 59%
    17:00 +19°C° 0.5 mm 1 mps 692 mmHg 67%
    18:00 +16°C° 0.5 mm 1 mps 691 mmHg 75%
    19:00 +14°C° 0.5 mm 0 mps 691 mmHg 84%
    20:00 +13°C° 0.3 mm 0 mps 691 mmHg 86%
    21:00 +12°C° 0.3 mm 0 mps 691 mmHg 88%
    22:00 +11°C° 0.3 mm 0 mps 691 mmHg 90%
    23:00 +11°C° 0.3 mm 0 mps 691 mmHg 92%

    Tomorrow, 25 June, Monday

    Time Temperature Precipitation Wind Pressure Humidity
    00:00 +10°C° 0.3 mm 0 mps 691 mmHg 93%
    01:00 +10°C° 0.3 mm 0 mps 691 mmHg 94%
    02:00 +11°C° 0.3 mm 1 mps 691 mmHg 95%
    03:00 +11°C° 0.3 mm 1 mps 691 mmHg 96%
    04:00 +10°C° 0.3 mm 1 mps 691 mmHg 96%
    05:00 +11°C° 0.4 mm 1 mps 691 mmHg 95%
    06:00 +11°C° 0.4 mm 1 mps 691 mmHg 94%
    07:00 +12°C° 0.4 mm 1 mps 691 mmHg 92%
    08:00 +13°C° 0.4 mm 1 mps 692 mmHg 89%
    09:00 +13°C° 0.4 mm 1 mps 692 mmHg 86%
    10:00 +14°C° 0.4 mm 2 mps 693 mmHg 83%
    11:00 +15°C° 0.5 mm 2 mps 693 mmHg 78%
    12:00 +16°C° 0.5 mm 2 mps 693 mmHg 72%
    13:00 +17°C° 0.5 mm 2 mps 693 mmHg 67%
    14:00 +18°C° 0.4 mm 2 mps 693 mmHg 65%
    15:00 +18°C° 0.4 mm 2 mps 693 mmHg 63%
    16:00 +18°C° 0.4 mm 2 mps 693 mmHg 61%
    17:00 +18°C° 0.2 mm 1 mps 693 mmHg 67%
    18:00 +16°C° 0.2 mm 1 mps 692 mmHg 73%
    19:00 +15°C° 0.2 mm 1 mps 692 mmHg 80%
    20:00 +13°C° 0 mm 1 mps 693 mmHg 84%
    21:00 +12°C° 0 mm 1 mps 693 mmHg 88%
    22:00 +10°C° 0 mm 1 mps 693 mmHg 92%
    23:00 +10°C° 0 mm 1 mps 693 mmHg 92%

    Day after tomorrow, 26 June, Tuesday

    Time Temperature Precipitation Wind Pressure Humidity
    00:00 +9°C° 0 mm 1 mps 693 mmHg 92%
    01:00 +9°C° 0 mm 1 mps 693 mmHg 93%
    02:00 +8°C° 0 mm 1 mps 692 mmHg 93%
    03:00 +8°C° 0 mm 1 mps 692 mmHg 93%
    04:00 +8°C° 0 mm 1 mps 692 mmHg 93%
    05:00 +10°C° 0 mm 1 mps 692 mmHg 86%
    06:00 +12°C° 0 mm 1 mps 693 mmHg 80%
    07:00 +14°C° 0 mm 1 mps 693 mmHg 74%
    08:00 +16°C° 0 mm 2 mps 693 mmHg 64%
    09:00 +18°C° 0 mm 2 mps 694 mmHg 54%
    10:00 +20°C° 0 mm 2 mps 694 mmHg 44%
    11:00 +20°C° 0 mm 2 mps 694 mmHg 43%
    12:00 +21°C° 0 mm 2 mps 694 mmHg 43%
    13:00 +21°C° 0 mm 2 mps 693 mmHg 42%
    14:00 +21°C° 0 mm 2 mps 693 mmHg 43%
    15:00 +21°C° 0 mm 2 mps 693 mmHg 45%
    16:00 +21°C° 0 mm 2 mps 693 mmHg 46%
    17:00 +20°C° 0 mm 2 mps 693 mmHg 54%
    18:00 +20°C° 0 mm 1 mps 693 mmHg 62%
    19:00 +18°C° 0 mm 1 mps 693 mmHg 70%
    20:00 +16°C° 0 mm 1 mps 693 mmHg 74%
    21:00 +14°C° 0 mm 1 mps 693 mmHg 78%
    22:00 +12°C° 0 mm 1 mps 693 mmHg 82%
    23:00 +12°C° 0 mm 1 mps 693 mmHg 83%

    27 June, Wednesday

    Time Temperature Precipitation Wind Pressure Humidity
    00:00 +11°C° 0 mm 1 mps 693 mmHg 85%
    01:00 +11°C° 0 mm 1 mps 693 mmHg 87%
    02:00 +10°C° 0 mm 1 mps 692 mmHg 88%
    03:00 +10°C° 0 mm 1 mps 692 mmHg 89%
    04:00 +10°C° 0 mm 1 mps 692 mmHg 90%
    05:00 +12°C° 0 mm 1 mps 693 mmHg 83%
    06:00 +14°C° 0 mm 1 mps 693 mmHg 76%
    07:00 +16°C° 0 mm 1 mps 693 mmHg 69%
    08:00 +19°C° 0 mm 1 mps 693 mmHg 61%
    09:00 +21°C° 0 mm 1 mps 694 mmHg 52%
    10:00 +23°C° 0 mm 2 mps 694 mmHg 43%
    11:00 +23°C° 0 mm 2 mps 693 mmHg 42%
    12:00 +24°C° 0 mm 2 mps 693 mmHg 41%
    13:00 +24°C° 0 mm 2 mps 693 mmHg 40%
    14:00 +24°C° 0 mm 2 mps 693 mmHg 42%
    15:00 +24°C° 0 mm 2 mps 692 mmHg 43%
    16:00 +24°C° 0 mm 2 mps 692 mmHg 45%
    17:00 +22°C° 0.1 mm 1 mps 692 mmHg 55%
    18:00 +21°C° 0.1 mm 1 mps 692 mmHg 65%
    19:00 +19°C° 0.1 mm 1 mps 691 mmHg 75%
    20:00 +16°C° 0.2 mm 1 mps 691 mmHg 80%
    21:00 +15°C° 0.2 mm 1 mps 691 mmHg 84%
    22:00 +13°C° 0.2 mm 1 mps 691 mmHg 89%
    23:00 +13°C° 0.1 mm 1 mps 691 mmHg 90%

    28 June, Thursday

    Time Temperature Precipitation Wind Pressure Humidity
    00:00 +12°C° 0.1 mm 1 mps 691 mmHg 91%
    01:00 +12°C° 0.1 mm 1 mps 690 mmHg 91%
    02:00 +12°C° 0.1 mm 1 mps 690 mmHg 92%
    03:00 +11°C° 0.1 mm 1 mps 690 mmHg 92%
    04:00 +11°C° 0.1 mm 1 mps 690 mmHg 93%
    05:00 +13°C° 0.2 mm 1 mps 690 mmHg 88%
    06:00 +14°C° 0.2 mm 1 mps 690 mmHg 83%
    07:00 +16°C° 0.2 mm 1 mps 690 mmHg 78%
    08:00 +18°C° 0.5 mm 1 mps 690 mmHg 72%
    09:00 +20°C° 0.5 mm 1 mps 690 mmHg 66%
    10:00 +22°C° 0.5 mm 1 mps 690 mmHg 60%
    11:00 +22°C° 0.9 mm 1 mps 690 mmHg 60%
    12:00 +22°C° 0.9 mm 1 mps 690 mmHg 61%
    13:00 +22°C° 0.9 mm 1 mps 689 mmHg 62%
    14:00 +21°C° 1.1 mm 1 mps 689 mmHg 65%
    15:00 +20°C° 1.1 mm 1 mps 689 mmHg 69%
    16:00 +19°C° 1.1 mm 1 mps 689 mmHg 73%
    17:00 +18°C° 0.6 mm 1 mps 688 mmHg 78%
    18:00 +16°C° 0.6 mm 1 mps 688 mmHg 83%
    19:00 +14°C° 0.6 mm 0 mps 688 mmHg 88%
    20:00 +14°C° 0 mm 1 mps 688 mmHg 88%
    21:00 +13°C° 0 mm 1 mps 688 mmHg 89%
    22:00 +12°C° 0 mm 1 mps 688 mmHg 89%
    23:00 +11°C° 0 mm 1 mps 688 mmHg 90%

    29 June, Friday

    Time Temperature Precipitation Wind Pressure Humidity
    00:00 +10°C° 0 mm 1 mps 688 mmHg 91%
    01:00 +10°C° 0 mm 1 mps 687 mmHg 91%
    02:00 +9°C° 0 mm 1 mps 687 mmHg 91%
    03:00 +9°C° 0 mm 1 mps 687 mmHg 91%
    04:00 +9°C° 0 mm 1 mps 687 mmHg 91%
    05:00 +10°C° 0 mm 1 mps 687 mmHg 86%
    06:00 +12°C° 0 mm 1 mps 688 mmHg 81%
    07:00 +14°C° 0 mm 1 mps 688 mmHg 76%
    08:00 +18°C° 0 mm 1 mps 688 mmHg 66%
    09:00 +18°C° 0 mm 0 mps 689 mmHg 55%
    10:00 +21°C° 0 mm 0 mps 689 mmHg 45%
    11:00 +23°C° 0.1 mm 1 mps 689 mmHg 44%
    12:00 +23°C° 0.1 mm 1 mps 689 mmHg 44%
    13:00 +24°C° 0.1 mm 2 mps 689 mmHg 43%
    14:00 +21°C° 0.3 mm 2 mps 688 mmHg 50%
    15:00 +20°C° 0.3 mm 2 mps 688 mmHg 57%
    16:00 +19°C° 0.3 mm 2 mps 688 mmHg 64%
    17:00 +19°C° 0.3 mm 1 mps 688 mmHg 71%
    18:00 +18°C° 0.3 mm 1 mps 688 mmHg 78%
    19:00 +15°C° 0.3 mm 1 mps 688 mmHg 85%
    20:00 +15°C° 0.2 mm 1 mps 688 mmHg 87%
    21:00 +14°C° 0.2 mm 1 mps 688 mmHg 90%
    22:00 +13°C° 0.2 mm 1 mps 688 mmHg 92%
    23:00 +13°C° 0.2 mm 1 mps 689 mmHg 92%
    Show more